Flag for Denmark Weather past 2 weeks in Copenhagen, Denmark

Now
66 °F

Clear.


Feels Like: 66 °F
Forecast: 66 / 80 °F
Wind: 7 mph from Northeast

Location: Koebenhavn-Kastrup Airport

Current Time: Jul 25, 2014 at 4:35:13 AM

Latest Report: Jul 25, 2014 at 3:50 AM


Visibility: 10 mi

Pressure: 30.09 "Hg

Humidity: 83%

Dew point: 61 °F

Location of CopenhagenLocation

Historic Weather in Copenhagen — Graph

°F

Copenhagen temperature yesterday

Maximum temperature yesterday: 82 °F (at 1:50 PM)
Minimum temperature yesterday: 64 °F (at 4:20 AM)
Average temperature yesterday: 73 °F

Past Weeks' High & Low Weather Summary

 TemperatureHumidityPressure
High84 °F (Jul 10, 1:20 PM)100% (Jul 13, 6:20 AM)30.24 "Hg (Jul 13, 6:20 AM)
Low57 °F (Jul 12, 5:20 AM)30% (Jul 23, 3:50 PM)29.56 "Hg (Jul 14, 11:50 AM)
Average68 °F70%30.01 "Hg
* Reported Jul 10 3:20 AM — Jul 25 3:20 AM, Copenhagen, Weather by CustomWeather, © 2014

Note: Actual official high and low records may vary slightly from our data, if they occured in-between our weather recording intervals... More about our weather records

Advertising

Copenhagen weather history for previous 24 hours

 ConditionsComfort  
Time TempWeatherWind HumidityBarometerVisibility
3:20 AM
Jul 25
66 °FClear.7 mph83%30.09 "Hg10 mi
2:50 AM68 °FClear.7 mph78%30.12 "Hg10 mi
2:20 AM66 °FClear.7 mph78%30.12 "Hg10 mi
1:50 AM68 °FClear.7 mph73%30.12 "Hg10 mi
1:20 AM70 °FClear.8 mph64%30.12 "Hg10 mi
12:50 AM68 °FClear.7 mph73%30.12 "Hg10 mi
12:20 AM72 °FClear.8 mph65%30.12 "Hg10 mi
11:50 PM
Jul 24
68 °FClear.7 mph73%30.12 "Hg10 mi
11:20 PM70 °FClear.6 mph64%30.12 "Hg10 mi
10:50 PM70 °FClear.6 mph64%30.12 "Hg10 mi
10:20 PM72 °FSunny.8 mph61%30.12 "Hg10 mi
9:50 PM73 °FSunny.10 mph53%30.12 "Hg10 mi
9:20 PM73 °FPassing clouds.9 mph57%30.12 "HgN/A
8:50 PM75 °FSunny.10 mph54%30.12 "Hg10 mi
8:20 PM77 °FSunny.10 mph51%30.09 "Hg10 mi
7:50 PM77 °FSunny.8 mph51%30.09 "Hg10 mi
7:20 PM79 °FSunny.10 mph45%30.09 "Hg10 mi
6:50 PM79 °FPassing clouds.10 mph42%30.09 "HgN/A
6:20 PM81 °FSunny.10 mph37%30.09 "Hg10 mi
5:50 PM81 °FPassing clouds.10 mph37%30.12 "HgN/A
5:20 PM81 °FSunny.10 mph34%30.12 "Hg10 mi
4:50 PM81 °FSunny.12 mph34%30.12 "Hg10 mi
4:20 PM81 °FSunny.14 mph34%30.12 "Hg10 mi
3:50 PM81 °FSunny.14 mph34%30.12 "Hg10 mi
3:20 PM81 °FSunny.14 mph34%30.12 "Hg10 mi
2:50 PM82 °FSunny.13 mph35%30.12 "Hg10 mi
2:20 PM82 °FPassing clouds.14 mph37%30.12 "HgN/A
1:50 PM82 °FSunny.13 mph40%30.12 "Hg10 mi
1:20 PM79 °FPassing clouds.7 mph48%30.12 "HgN/A
12:50 PM79 °FPassing clouds.8 mph48%30.12 "HgN/A
12:20 PM79 °FPassing clouds.9 mph48%30.15 "HgN/A
11:50 AM77 °FPassing clouds.7 mph51%30.15 "HgN/A
11:20 AM77 °FPassing clouds.6 mph57%30.15 "HgN/A
10:50 AM75 °FPassing clouds.7 mph57%30.15 "HgN/A
10:20 AM73 °FPassing clouds.7 mph61%30.15 "HgN/A
9:50 AM70 °FPassing clouds.8 mph69%30.15 "HgN/A
9:20 AM70 °FPassing clouds.9 mph69%30.15 "HgN/A
8:50 AM68 °FSunny.8 mph73%30.15 "Hg10 mi
8:20 AM68 °FPassing clouds.7 mph69%30.15 "HgN/A
7:50 AM68 °FSunny.7 mph69%30.15 "Hg10 mi
7:20 AM66 °FSunny.7 mph73%30.15 "Hg10 mi
6:50 AM66 °FPassing clouds.6 mph73%30.15 "HgN/A
6:20 AM66 °FSunny.7 mph73%30.15 "Hg10 mi
5:50 AM64 °FClear.7 mph83%30.15 "Hg10 mi
5:20 AM64 °FClear.6 mph78%30.15 "Hg10 mi
4:50 AM64 °FClear.7 mph78%30.15 "Hg10 mi
4:20 AM64 °FClear.7 mph83%30.15 "Hg10 mi
Weather by CustomWeather, © 2014

See weather overviewHow to use our weather pages